Overview Statistics Trail Chart Weather Telemetry Raw packets
 

This is the latest recevied weather packets stored in our database for station/object OK1TBM-13. If no packets are shown the sender has not sent any weather packets the latest 10 day(s).

<< 16 17 18 19 20 21 22 >>
Time Temp. Humidity Pressure Rain* Wind** Luminosity Snow
1788528901 25.56° C 56% 1011.8 hPa 0 mm - 322 W/m² -
1788528601 25.56° C 58% 1011.8 hPa 0 mm - 279 W/m² -
1788528001 25.56° C 58% 1011.8 hPa 0 mm - 221 W/m² -
1788527701 25.56° C 59% 1012.2 hPa 0 mm - 95 W/m² -
1788527401 25° C 59% 1012.2 hPa 0 mm - 130 W/m² -
1788527101 25° C 59% 1012.2 hPa 0 mm - 102 W/m² -
1788526801 25.56° C 59% 1012.2 hPa 0 mm - 134 W/m² -
1788526501 25.56° C 60% 1012.2 hPa 0 mm - 187 W/m² -
1788526201 25.56° C 60% 1012.5 hPa 0 mm - 177 W/m² -
1788525901 25.56° C 60% 1012.5 hPa 0 mm - 148 W/m² -
1788525601 25.56° C 60% 1012.5 hPa 0 mm - 94 W/m² -
1788525301 25.56° C 59% 1012.5 hPa 0 mm - 140 W/m² -
1788524401 25.56° C 58% 1013.2 hPa 0 mm - 426 W/m² -
1788524101 25.56° C 58% 1013.2 hPa 0 mm - 285 W/m² -
1788523801 25.56° C 57% 1013.2 hPa 0 mm - 416 W/m² -
1788523201 25.56° C 59% 1013.2 hPa 0 mm - 276 W/m² -
1788522000 25° C 60% 1013.6 hPa 0 mm - 359 W/m² -
1788521700 25° C 60% 1013.6 hPa 0 mm - 256 W/m² -
1788521106 25° C 60% 1013.6 hPa 0 mm - 269 W/m² -
1788520802 25° C 60% 1013.6 hPa 0 mm - 178 W/m² -
1788520502 25° C 61% 1013.9 hPa 0 mm - 696 W/m² -
1788520201 24.44° C 61% 1013.9 hPa 0 mm - 216 W/m² -
1788519601 24.44° C 61% 1013.9 hPa 0 mm - 249 W/m² -
1788519301 24.44° C 62% 1013.9 hPa 0 mm - 196 W/m² -
1788519001 24.44° C 62% 1014.2 hPa 0 mm - 221 W/m² -

* Rain latest hour (hover to see other rain measurements)
** Current wind speed in m/s (hover to see current wind gust speed)